Hourly Data Report for April 21, 2017

CLYDE RIVER A
NUNAVUT

70°29'09.000" N
68°31'01.000" W
26.50 m
2400804
71090
YCY

Download Data

Hourly Data (April 2017)
Hourly Data Report for April 21, 2017
TIME
LST
Temp Definition
°C
Dew Point Definition
°C
Rel Hum Definition
%
Precip. Amount Definition
mm

Wind Dir Definition
10's deg

Wind Spd Definition
km/h
Visibility Definition
km
Stn Press Definition
kPa
Hmdx Definition


Wind Chill Definition


Weather Definition


00:00 -15.5 -17.7 84 0.0 31 37 4.8 101.88   -28 Snow
01:00 -15.2 -17.5 83 0.0 31 39 4.8 101.89   -28 Snow
02:00 -15.1 -17.2 84 0.0 31 37 1.6 101.88   -27 Snow
03:00 -15.2 -17.3 84 0.0 31 46 1.2 101.87   -28 Snow,Blowing Snow
04:00 -15.1 -17.1 85 0.0 31 43 1.6 101.85   -28 Snow,Blowing Snow
05:00 -15.0 -17.0 85 0.0 31 46 1.2 101.83   -28 Snow,Blowing Snow
06:00 -14.9 -16.9 85 0.0 31 50 0.6 101.82   -28 Moderate Snow,Blowing Snow
07:00 -14.5 -16.6 84 0.0 31 43 1.2 101.86   -27 Snow,Blowing Snow
08:00 -14.2 -16.4 84 0.0 31 37 0.8 101.87   -26 Moderate Snow
09:00 -13.6 -16.2 81 0.0 30 34 1.6 101.89   -25 Snow
10:00 -13.6 -15.9 83 0.0 30 35 1.6 101.90   -25 Snow
11:00 -13.2 -16.0 80 0.0 28 24 2.8 101.90   -23 Snow
12:00 -12.8 -15.8 78 0.0 30 26 16.1 101.89   -23 Snow
13:00 -12.4 -15.3 79 0.0 29 22 9.7 101.92   -21 Snow
14:00 -12.5 -16.0 75 0.0 29 22 16.1 101.95   -21 Snow
15:00 -12.7 -16.1 76 0.0 29 15 16.1 101.98   -20 LegendNANA
16:00 -12.9 -16.0 78 0.0 29 15 16.1 102.00   -20 LegendNANA
17:00 -12.2 -15.7 75 0.0 LegendMM 4 16.1 102.02   -15 LegendNANA
18:00 -14.9 -17.3 82 0.0 12 11 16.1 102.03   -21 LegendNANA
19:00 -16.5 -18.4 85 0.0 7 4 16.1 102.05   -20 LegendNANA
20:00 -19.4 -20.7 89 0.0 24 8 16.1 102.08   -26 LegendNANA
21:00 -19.9 -21.7 86 0.0 24 11 16.1 102.09   -28 LegendNANA
22:00 -22.1 -24.1 84 0.0 25 5 16.1 102.09   -27 LegendNANA
23:00 -21.0 -23.3 82 0.0 25 9 16.1 102.09   -28 LegendNANA

Notes on Data Quality.

Legend

  • E = Estimated
  • M = Missing
  • NA = Not Available*
  • [empty] = Indicates an unobserved value
Date modified: